Location: A�t �Alizem
(31.2076°N, 8.7872°W)
Time: 15:56:53
(UTC+00:00)

CZ-3A R/B - Pass Details

Date: 27 November 2020
Orbit: 440 x 34926 km, 24.6° (Epoch: 25 January)

Event Time Altitude Azimuth Distance (km) Brightness Sun altitude
Rises 19:25:20 0° 254° (WSW) 3,250 7.2 -23.7°
Reaches altitude 10° 19:28:17 10° 241° (WSW) 1,738 5.3 -24.3°
Enters shadow 19:30:21 25° 202° (SSW) 935 3.3 -24.8°
